EW2974 Weather Reports


time (UTC)temp
C
wind
direction
speed
KPH
gust
KPH
rain 1hr
cm
rain 24hr
cm
rain mn
cm
humidity
%
barometer
mb
20260505001904 20 249 1.6 14.5 0.00 0.03 0.03 54 1002.4
20260505000905 20 255 0.0 4.8 0.00 0.03 0.03 53 1002.3
20260505000405 21 191 0.0 9.7 0.00 0.03 0.03 53 1002.2
20260504235404 21 242 11.3 27.4 0.00 0.03 0.03 53 1002.2
20260504234905 21 167 6.4 25.7 0.00 0.03 0.03 53 1002.1
20260504234405 21 209 3.2 14.5 0.00 0.03 0.03 52 1002.1
20260504233905 21 237 3.2 14.5 0.00 0.03 0.03 52 1002.0
20260504232405 21 257 1.6 4.8 0.00 0.03 0.03 52 1002.0
20260504231904 21 241 3.2 22.5 0.00 0.03 0.03 52 1001.9
20260504231405 22 249 4.8 29.0 0.00 0.03 0.03 51 1002.0
20260504230905 21 237 4.8 37.0 0.00 0.03 0.03 51 1002.0
20260504230405 21 238 4.8 37.0 0.00 0.03 0.03 52 1002.3
20260504225904 21 211 11.3 29.0 0.00 0.03 0.03 51 1002.4
20260504224904 22 198 3.2 27.4 0.00 0.03 0.03 52 1002.4
20260504224404 22 160 0.0 25.7 0.00 0.03 0.03 52 1002.5
20260504223905 22 268 0.0 22.5 0.00 0.03 0.03 52 1002.5
20260504223405 22 264 1.6 12.9 0.00 0.03 0.03 51 1002.6
20260504222904 22 224 6.4 27.4 0.00 0.03 0.03 51 1002.8
20260504222404 22 255 1.6 22.5 0.00 0.03 0.03 51 1002.8
20260504221905 21 264 8.0 22.5 0.00 0.03 0.03 51 1002.8
20260504221404 21 237 9.7 37.0 0.00 0.03 0.03 52 1002.9
20260504220905 21 250 8.0 25.7 0.00 0.03 0.03 51 1002.9
20260504215905 22 268 1.6 29.0 0.00 0.03 0.03 50 1002.9
20260504215405 22 149 1.6 9.7 0.00 0.03 0.03 49 1002.8
20260504214905 22 189 4.8 22.5 0.00 0.03 0.03 48 1002.7
20260504214405 22 195 4.8 27.4 0.00 0.03 0.03 49 1002.7
20260504213906 22 252 9.7 20.9 0.00 0.03 0.03 50 1002.9
20260504213405 22 254 9.7 14.5 0.00 0.03 0.03 47 1003.0
20260504212404 22 218 0.0 8.0 0.00 0.03 0.03 50 1003.0
20260504211405 22 236 6.4 22.5 0.00 0.03 0.03 47 1003.1
20260504210905 22 217 4.8 22.5 0.00 0.03 0.03 47 1003.0
20260504205404 23 218 12.9 22.5 0.00 0.03 0.03 45 1003.1
20260504204905 23 268 4.8 22.5 0.00 0.03 0.03 45 1003.0
20260504204405 23 263 8.0 14.5 0.00 0.03 0.03 46 1003.1
20260504203905 22 252 4.8 19.3 0.00 0.03 0.03 46 1003.0
20260504203404 23 205 1.6 22.5 0.00 0.03 0.03 44 1002.9
20260504202905 23 232 11.3 27.4 0.00 0.03 0.03 45 1003.0
20260504202405 23 237 4.8 25.7 0.00 0.03 0.03 45 1003.0
20260504201905 23 242 4.8 27.4 0.00 0.03 0.03 42 1003.1
20260504201404 23 214 3.2 19.3 0.00 0.03 0.03 43 1003.1
20260504200405 23 224 8.0 27.4 0.00 0.03 0.03 44 1003.2
20260504195905 23 267 3.2 19.3 0.00 0.03 0.03 46 1003.3
20260504194905 23 188 6.4 25.7 0.00 0.03 0.03 44 1003.3
20260504194405 23 268 9.7 29.0 0.00 0.03 0.03 43 1003.6
20260504193405 23 213 0.0 14.5 0.00 0.03 0.03 46 1003.7
20260504192904 23 275 9.7 22.5 0.00 0.03 0.03 45 1003.8
20260504192404 22 231 8.0 19.3 0.00 0.03 0.03 47 1003.9
20260504191404 22 213 11.3 35.4 0.00 0.03 0.03 46 1004.0
20260504190905 23 242 1.6 22.5 0.00 0.03 0.03 46 1004.0
20260504185905 23 215 6.4 40.2 0.00 0.03 0.03 44 1004.1
20260504185405 23 176 1.6 22.5 0.00 0.03 0.03 46 1004.0
20260504184904 23 221 3.2 25.7 0.00 0.03 0.03 45 1004.1
20260504184405 23 190 4.8 33.8 0.00 0.03 0.03 44 1004.2
20260504183904 23 216 8.0 22.5 0.00 0.03 0.03 46 1004.4
20260504183404 23 237 1.6 22.5 0.00 0.03 0.03 46 1004.4
20260504182904 23 192 11.3 22.5 0.00 0.03 0.03 44 1004.4
20260504182404 22 225 6.4 29.0 0.00 0.03 0.03 43 1004.5
20260504181904 22 187 8.0 27.4 0.00 0.03 0.03 45 1004.7
20260504181405 22 223 9.7 25.7 0.00 0.03 0.03 44 1004.7
20260504180904 22 263 9.7 19.3 0.00 0.03 0.03 45 1004.7
20260504180405 22 223 6.4 35.4 0.00 0.03 0.03 43 1004.8
20260504175904 22 267 4.8 35.4 0.00 0.03 0.03 46 1004.8
20260504174904 22 242 4.8 20.9 0.00 0.03 0.03 46 1004.9
20260504173904 22 250 3.2 27.4 0.00 0.03 0.03 46 1005.0
20260504173404 22 169 9.7 25.7 0.00 0.03 0.03 49 1005.0
20260504172904 22 187 4.8 19.3 0.00 0.03 0.03 48 1005.1
20260504172405 22 240 4.8 27.4 0.00 0.03 0.03 46 1005.1
20260504171904 22 140 8.0 14.5 0.00 0.03 0.03 48 1005.0
20260504171405 22 174 19.3 33.8 0.00 0.03 0.03 46 1005.1
20260504170904 22 187 9.7 22.5 0.00 0.03 0.03 44 1005.2
20260504170404 22 230 1.6 14.5 0.00 0.03 0.03 47 1005.1
20260504160405 20 252 9.7 29.0 0.00 0.03 0.03 50 1006.0
20260504150905 18 245 8.0 22.5 0.03 0.03 0.03 54 1006.6
20260504150404 17 166 6.4 19.3 0.03 0.03 0.03 53 1006.9
20260504140905 15 168 1.6 19.3 0.00 0.00 0.00 54 1007.3
20260504140404 15 219 3.2 14.5 0.00 0.00 0.00 55 1007.2
20260504130405 13 219 9.7 20.9 0.00 0.00 0.00 58 1007.9
20260504110404 9 207 0.0 8.0 0.00 0.00 0.00 66 1007.7
20260504100404 8 220 0.0 0.0 0.00 0.00 0.00 68 1007.6
20260504081905 9 249 1.6 8.0 0.00 0.00 0.00 68 1008.3
20260504080404 9 240 1.6 12.9 0.00 0.00 0.00 68 1008.4
20260504070405 9 244 1.6 4.8 0.00 0.00 0.00 65 1009.2
20260504050404 10 254 0.0 0.0 0.00 0.00 0.00 64 1010.4
20260504045404 10 257 0.0 0.0 0.00 0.00 0.00 63 1010.5
20260504044904 10 257 0.0 0.0 0.00 0.00 0.00 64 1010.5
20260504044405 10 257 0.0 0.0 0.00 0.00 0.00 65 1010.4
20260504043905 10 257 0.0 0.0 0.00 0.00 0.00 64 1010.4
20260504042904 10 257 0.0 0.0 0.00 0.00 0.00 63 1010.5
20260504042404 10 257 0.0 0.0 0.00 0.00 0.00 63 1010.4
20260504041904 10 257 0.0 0.0 0.00 0.00 0.00 61 1010.4
20260504041404 10 257 0.0 0.0 0.00 0.00 0.00 61 1010.5
20260504040404 10 257 0.0 0.0 0.00 0.00 0.00 61 1010.7
20260504035904 10 257 0.0 0.0 0.00 0.00 0.00 61 1010.8
20260504035405 10 257 0.0 0.0 0.00 0.00 0.00 61 1011.0
20260504034404 10 257 0.0 1.6 0.00 0.00 0.00 60 1011.1
20260504033904 10 258 0.0 0.0 0.00 0.00 0.00 61 1011.1
20260504033404 10 257 0.0 0.0 0.00 0.00 0.00 60 1011.1
20260504032904 9 258 0.0 0.0 0.00 0.00 0.00 61 1011.2
20260504031904 9 257 0.0 0.0 0.00 0.00 0.00 59 1011.5
20260504031405 9 257 0.0 0.0 0.00 0.00 0.00 59 1011.6
20260504030904 9 257 0.0 0.0 0.00 0.00 0.00 60 1011.6
20260504025904 8 246 1.6 8.0 0.00 0.00 0.00 61 1011.6
20260504025406 8 207 1.6 9.7 0.00 0.00 0.00 66 1011.7
20260504024904 8 215 0.0 0.0 0.00 0.00 0.00 67 1011.6
20260504024404 8 215 0.0 0.0 0.00 0.00 0.00 70 1011.4
20260504023904 8 215 0.0 0.0 0.00 0.00 0.00 70 1011.3
20260504023405 8 215 0.0 0.0 0.00 0.00 0.00 68 1011.3
20260504022905 8 215 0.0 0.0 0.00 0.00 0.00 67 1011.3
20260504021904 9 215 0.0 0.0 0.00 0.00 0.00 69 1011.2
20260504021404 9 215 0.0 0.0 0.00 0.00 0.00 67 1011.2
20260504020904 10 215 0.0 0.0 0.00 0.00 0.00 66 1011.3
20260504020404 10 215 0.0 0.0 0.00 0.00 0.00 64 1011.4
20260504015904 10 215 0.0 0.0 0.00 0.00 0.00 64 1011.3
20260504014904 10 215 0.0 0.0 0.00 0.00 0.00 60 1011.3
20260504014404 11 215 0.0 0.0 0.00 0.00 0.00 52 1011.3
20260504013904 11 215 0.0 0.0 0.00 0.00 0.00 52 1011.2
20260504012904 11 215 0.0 0.0 0.00 0.00 0.00 51 1011.1
20260504012404 11 215 0.0 0.0 0.00 0.00 0.00 51 1011.1
20260504011905 11 215 0.0 0.0 0.00 0.00 0.00 51 1011.1
20260504011404 11 215 0.0 4.8 0.00 0.00 0.00 50 1011.1
20260504010904 12 213 0.0 0.0 0.00 0.00 0.00 49 1011.1
20260504005904 12 212 0.0 0.0 0.00 0.00 0.00 48 1011.2
20260504005405 12 212 0.0 0.0 0.00 0.00 0.00 48 1011.2
20260504004904 12 207 3.2 14.5 0.00 0.00 0.00 47 1011.2
20260504003404 13 211 0.0 0.0 0.00 0.00 0.00 47 1011.1
20260504002904 13 210 1.6 8.0 0.00 0.00 0.00 46 1011.1